Home   Weather   Bridgetown   Past weeks
Flag for Barbados

Past Weather in Bridgetown, Barbados — Yesterday and Last 2 Weeks

Now
82 °F

Scattered showers. Scattered clouds.


Feels Like: 88 °F
Forecast: 88 / 80 °F
Wind: 14 mph from Southeast

Location: Grantley Adams

Current Time: Oct 23, 2019 at 7:08:53 am

Latest Report: Oct 23, 2019 at 6:00 am


Visibility: N/A

Pressure: 29.86 "Hg

Humidity: 74%

Dew Point: 73 °F

Location of BridgetownLocation

Past Weather in Bridgetown — Graph

°F

Bridgetown Temperature Yesterday

Maximum temperature yesterday: 90 °F (at 11:00 am)
Minimum temperature yesterday: 77 °F (at 1:00 am)
Average temperature yesterday: 83 °F

High & Low Weather Summary for the Past Weeks

 TemperatureHumidityPressure
High90 °F (Oct 12, 12:00 pm)94% (Oct 17, 7:00 am)29.98 "Hg (Oct 17, 7:00 am)
Low75 °F (Oct 21, 2:00 am)55% (Oct 22, 10:00 am)29.80 "Hg (Oct 10, 3:00 pm)
Average83 °F73%29.89 "Hg
* Reported Oct 8 6:00 am — Oct 23 6:00 am, Bridgetown. Weather by CustomWeather, © 2019

Note: Actual official high and low records may vary slightly from our data, if they occured in-between our weather recording intervals... More about our weather records

Advertising

Bridgetown Weather History for the Previous 24 Hours

Scroll right to see more
 ConditionsComfort  
Time TempWeatherWind HumidityBarometerVisibility
6:00 am
Wed, Oct 23
82 °FScattered showers. Scattered clouds.14 mph74%29.86 "HgN/A
5:00 am81 °FPassing clouds.12 mph79%29.83 "HgN/A
4:00 am81 °FPassing clouds.16 mph79%29.83 "HgN/A
3:00 am82 °FPassing clouds.14 mph74%29.83 "HgN/A
2:00 am81 °FPassing clouds.13 mph79%29.83 "HgN/A
1:00 am79 °FSprinkles. Passing clouds.22 mph84%29.86 "HgN/A
12:00 am82 °FPassing clouds.12 mph74%29.86 "HgN/A
11:00 pm
Tue, Oct 22
79 °FPassing clouds.15 mph79%29.86 "HgN/A
10:00 pm81 °FPassing clouds.8 mph79%29.86 "HgN/A
9:00 pm81 °FPassing clouds.9 mph79%29.86 "HgN/A
8:00 pm79 °FPassing clouds.9 mph84%29.86 "HgN/A
7:00 pm79 °FScattered showers. Passing clouds.14 mph84%29.86 "HgN/A
6:00 pm81 °FScattered showers. Passing clouds.8 mph79%29.83 "HgN/A
5:00 pm82 °FScattered showers. Scattered clouds.10 mph74%29.83 "HgN/A
4:00 pm84 °FScattered showers. Scattered clouds.13 mph70%29.83 "HgN/A
3:00 pm88 °FPassing clouds.13 mph59%29.83 "HgN/A
2:00 pm88 °FScattered clouds.12 mph59%29.83 "HgN/A
1:00 pm88 °FScattered clouds.14 mph59%29.89 "HgN/A
12:00 pm88 °FScattered clouds.14 mph59%29.89 "HgN/A
11:00 am90 °FPartly sunny.16 mph59%29.92 "HgN/A
10:00 am86 °FPassing clouds.14 mph55%29.95 "HgN/A
9:00 am86 °FPassing clouds.13 mph59%29.92 "HgN/A
8:00 am86 °FScattered clouds.14 mph62%29.92 "HgN/A
7:00 am82 °FScattered clouds.12 mph70%29.92 "HgN/A
Weather by CustomWeather, © 2019

See weather overview